Weather History for Sanford, ME

Change the Weather History Date:

Friday, February 15, 2013

  Actual Average Record
Temperature  
Mean Temperature 30 °F -  
Max Temperature 48 °F 32 °F 55 °F (2006)
Min Temperature 12 °F 13 °F -20 °F (2003)
Degree Days  
Heating Degree Days 35    
Moisture  
Dew Point 21 °F    
Average Humidity 72    
Maximum Humidity 100    
Minimum Humidity 40    
Precipitation  
Precipitation 0.00 in - - ()
Sea Level Pressure  
Sea Level Pressure 29.93 in    
Wind  
Wind Speed 3 mph (SSW)    
Max Wind Speed 10 mph    
Max Gust Speed 17 mph    
Visibility 9 miles    
Events      
Averages and records for this station are not official NWS values.
T = Trace of Precipitation, MM = Missing Value Source: NWS Daily Summary

Daily Weather History Graph

Daily Weather History Graph

Search for Another Location

Airport:

Trip Planner

Search our weather history database for the weather conditions in past years. The results will help you decide how hot, cold, wet, or windy it might be!

Date:

Astronomy

Feb. 15, 2013 Rise Set
Actual Time 6:40 AM EST 5:13 PM EST
Civil Twilight 6:11 AM EST 5:43 PM EST
Nautical Twilight 5:37 AM EST 6:16 PM EST
Astronomical Twilight 5:04 AM EST 6:49 PM EST
Moon 9:03 AM EST (2/15) 11:24 PM EST (2/15)
Length of Visible Light 11h 31m
Length of Day
10h 33m
Waxing Crescent, 30% of the Moon is Illuminated
Feb 15
Waxing Crescent
Feb 17
First Quarter
Feb 25
Full
Mar 4
Last Quarter
Mar 11
New

Hourly Weather History & Observations

Time (EST) Temp. Windchill Dew Point Humidity Pressure Visibility Wind Dir Wind Speed Gust Speed Precip Events Conditions
12:15 AM 21.2 °F - 17.6 °F 86% 29.96 in 10.0 mi Calm Calm - N/A   Scattered Clouds
12:35 AM 21.2 °F - 10.4 °F 63% 29.96 in 9.0 mi Calm Calm - N/A   Partly Cloudy
12:55 AM 21.2 °F 16.4 °F 19.4 °F 93% 29.96 in 10.0 mi WSW 3.5 mph - N/A   Scattered Clouds
1:15 AM 21.2 °F - 10.4 °F 63% 29.95 in 10.0 mi Calm Calm - N/A   Scattered Clouds
1:35 AM 19.4 °F - 17.6 °F 93% 29.96 in 10.0 mi Calm Calm - N/A   Clear
1:55 AM 17.6 °F - 12.2 °F 79% 29.96 in 8.0 mi Calm Calm - N/A   Clear
2:15 AM 17.6 °F - 10.4 °F 73% 29.96 in 7.0 mi Calm Calm - N/A   Clear
2:35 AM 15.8 °F - 12.2 °F 86% 29.95 in 5.0 mi Calm Calm - N/A   Clear
2:55 AM 14.0 °F 8.2 °F 6.8 °F 73% 29.96 in 7.0 mi WSW 3.5 mph - N/A   Clear
3:15 AM 14.0 °F - 10.4 °F 86% 29.95 in 7.0 mi Calm Calm - N/A   Clear
3:35 AM 14.0 °F - 6.8 °F 73% 29.95 in 7.0 mi Calm Calm - N/A   Clear
3:55 AM 14.0 °F - 12.2 °F 93% 29.95 in 7.0 mi Calm Calm - N/A   Clear
4:15 AM 12.2 °F - 6.8 °F 79% 29.95 in 7.0 mi Calm Calm - N/A   Clear
4:35 AM 12.2 °F - 10.4 °F 92% 29.96 in 8.0 mi Calm Calm - N/A   Clear
4:55 AM 12.2 °F - 8.6 °F 85% 29.95 in 8.0 mi Calm Calm - N/A   Partly Cloudy
5:15 AM 12.2 °F - 12.2 °F 100% 29.95 in 8.0 mi Calm Calm - N/A   Mostly Cloudy
5:35 AM 15.8 °F - 8.6 °F 73% 29.95 in 9.0 mi Calm Calm - N/A   Overcast
5:55 AM 15.8 °F - 15.8 °F 100% 29.95 in 8.0 mi Calm Calm - N/A   Overcast
6:15 AM 17.6 °F - 8.6 °F 68% 29.94 in 10.0 mi Calm Calm - N/A   Mostly Cloudy
6:35 AM 15.8 °F - 15.8 °F 100% 29.95 in 8.0 mi Calm Calm - N/A   Mostly Cloudy
6:55 AM 17.6 °F 10.7 °F 12.2 °F 79% 29.95 in 8.0 mi SSW 4.6 mph - N/A   Overcast
7:15 AM 26.6 °F 21.2 °F 21.2 °F 80% 29.95 in 9.0 mi SSW 4.6 mph - N/A   Overcast
7:35 AM 26.6 °F 20.0 °F 21.2 °F 80% 29.95 in 9.0 mi SW 5.8 mph - N/A   Overcast
7:55 AM 28.4 °F 22.2 °F 21.2 °F 74% 29.95 in 8.0 mi SSW 5.8 mph - N/A   Overcast
8:15 AM 28.4 °F 22.2 °F 24.8 °F 86% 29.95 in 8.0 mi SSW 5.8 mph - N/A   Mostly Cloudy
8:35 AM 30.2 °F 24.3 °F 21.2 °F 69% 29.96 in 8.0 mi SW 5.8 mph - N/A   Partly Cloudy
8:55 AM 30.2 °F 24.3 °F 24.8 °F 80% 29.96 in 8.0 mi SW 5.8 mph - N/A   Clear
9:15 AM 33.8 °F 27.7 °F 24.8 °F 70% 29.96 in 7.0 mi SSW 6.9 mph - N/A   Mostly Cloudy
9:35 AM 33.8 °F 27.7 °F 24.8 °F 70% 29.96 in 8.0 mi SSW 6.9 mph - N/A   Overcast
9:55 AM 33.8 °F 27.7 °F 28.4 °F 81% 29.96 in 8.0 mi SSW 6.9 mph - N/A   Overcast
10:15 AM 35.6 °F 29.2 °F 24.8 °F 65% 29.96 in 8.0 mi SW 8.1 mph - N/A   Overcast
10:55 AM 37.4 °F 30.8 °F 28.4 °F 70% 29.95 in 9.0 mi SW 9.2 mph - N/A   Mostly Cloudy
11:15 AM 39.2 °F 32.5 °F 24.8 °F 56% 29.94 in 9.0 mi SW 10.4 mph - N/A   Partly Cloudy
11:35 AM 41.0 °F 36.4 °F 24.8 °F 53% 29.94 in 9.0 mi South 6.9 mph - N/A   Clear
11:55 AM 42.8 °F 38.0 °F 24.8 °F 49% 29.92 in 10.0 mi SSW 8.1 mph - N/A   Clear
12:15 PM 42.8 °F 38.0 °F 26.6 °F 53% 29.91 in 10.0 mi SSW 8.1 mph - N/A   Clear
12:55 PM 44.6 °F 39.2 °F 28.4 °F 53% 29.89 in 10.0 mi SW 10.4 mph - N/A   Clear
1:15 PM 44.6 °F 39.7 °F 26.6 °F 49% 29.89 in 10.0 mi SW 9.2 mph 17.3 mph N/A   Clear
1:35 PM 46.4 °F 41.5 °F 26.6 °F 46% 29.89 in 10.0 mi SW 10.4 mph - N/A   Clear
2:15 PM 48.2 °F - 28.4 °F 46% 29.88 in 10.0 mi South 10.4 mph - N/A   Clear
2:35 PM 48.2 °F - 28.4 °F 46% 29.88 in 10.0 mi SSW 5.8 mph - N/A   Partly Cloudy
2:55 PM 48.2 °F - 26.6 °F 43% 29.88 in 10.0 mi SSW 6.9 mph - N/A   Clear
3:15 PM 48.2 °F - 26.6 °F 43% 29.87 in 10.0 mi SSW 6.9 mph - N/A   Clear
3:35 PM 48.2 °F - 26.6 °F 43% 29.87 in 10.0 mi SSW 6.9 mph - N/A   Clear
3:55 PM 48.2 °F - 26.6 °F 43% 29.87 in 10.0 mi SSW 5.8 mph - N/A   Clear
4:15 PM 48.2 °F - 26.6 °F 43% 29.87 in 10.0 mi SSW 6.9 mph - N/A   Clear
4:35 PM 44.6 °F 40.7 °F 26.6 °F 49% 29.87 in 10.0 mi SW 6.9 mph - N/A   Clear
4:55 PM 46.4 °F 44.3 °F 23.0 °F 40% 29.87 in 10.0 mi South 4.6 mph - N/A   Scattered Clouds
5:15 PM 44.6 °F 42.2 °F 26.6 °F 49% 29.88 in 10.0 mi SSW 4.6 mph - N/A   Partly Cloudy
5:35 PM 42.8 °F 41.1 °F 26.6 °F 53% 29.88 in 10.0 mi SSW 3.5 mph - N/A   Partly Cloudy
5:55 PM 35.6 °F 32.8 °F 26.6 °F 70% 29.89 in 10.0 mi East 3.5 mph - N/A   Clear
6:15 PM 37.4 °F - 28.4 °F 70% 29.89 in 10.0 mi Calm Calm - N/A   Clear
6:35 PM 33.8 °F 30.8 °F 26.6 °F 75% 29.89 in 10.0 mi South 3.5 mph - N/A   Clear
6:55 PM 33.8 °F - 24.8 °F 70% 29.89 in 10.0 mi Calm Calm - N/A   Scattered Clouds
7:15 PM 32.0 °F - 24.8 °F 75% 29.90 in 10.0 mi Calm Calm - N/A   Mostly Cloudy
7:35 PM 30.2 °F 26.7 °F 24.8 °F 80% 29.91 in 10.0 mi SW 3.5 mph - N/A   Mostly Cloudy
7:55 PM 30.2 °F 26.7 °F 23.0 °F 75% 29.91 in 10.0 mi SW 3.5 mph - N/A   Partly Cloudy
8:15 PM 28.4 °F - 21.2 °F 74% 29.91 in 10.0 mi Calm Calm - N/A   Clear
8:35 PM 28.4 °F - 24.8 °F 86% 29.91 in 10.0 mi Calm Calm - N/A   Clear
8:55 PM 26.6 °F - 24.8 °F 93% 29.92 in 10.0 mi Calm Calm - N/A   Clear
9:15 PM 24.8 °F 20.5 °F 23.0 °F 93% 29.92 in 10.0 mi SW 3.5 mph - N/A   Clear
9:35 PM 24.8 °F - 17.6 °F 74% 29.92 in 10.0 mi Calm Calm - N/A   Clear
9:55 PM 24.8 °F 20.5 °F 19.4 °F 80% 29.92 in 8.0 mi SW 3.5 mph - N/A   Clear
10:15 PM 24.8 °F - 21.2 °F 86% 29.93 in 10.0 mi Calm Calm - N/A   Clear
10:35 PM 23.0 °F - 19.4 °F 86% 29.93 in 7.0 mi Calm Calm - N/A   Partly Cloudy
10:55 PM 23.0 °F - 23.0 °F 100% 29.92 in 8.0 mi Calm Calm - N/A   Partly Cloudy
11:15 PM 19.4 °F 14.3 °F 12.2 °F 74% 29.92 in 7.0 mi WSW 3.5 mph - N/A   Clear
11:35 PM 23.0 °F - 19.4 °F 86% 29.93 in 7.0 mi Calm Calm - N/A   Mostly Cloudy
11:55 PM 24.8 °F - 24.8 °F 100% 29.92 in 8.0 mi Calm Calm - N/A   Overcast